time_stamp(utc),avg(mph),gust(mph),direction(deg),12m_air_temp(f),sonic_u(cm/s),sonic_v(cm/s),sonic_w(cm/s),pressure,2m_air_temp(f),pyranometer(W/m^2)
"2021-02-27 00:02:39+00",8.1,10.1,,39.5,344,-89,3,1031.69,38.9,0
"2021-02-27 00:07:39+00",8.4,9.4,,39.5,370,-62,10,1031.68,38.9,0
"2021-02-27 00:12:39+00",8.0,10.0,,39.6,342,-76,14,1031.74,39,0
"2021-02-27 00:17:39+00",7.8,8.8,,39.6,319,-133,3,1031.89,39,0
"2021-02-27 00:22:39+00",8.9,9.9,,39.7,382,-110,3,1031.72,39.1,0
"2021-02-27 00:27:39+00",8.2,10.2,,39.8,340,-142,10,1031.78,39.2,0
"2021-02-27 00:32:39+00",7.3,9.3,,39.8,312,-88,6,1031.78,39.2,0
"2021-02-27 00:37:39+00",7.7,9.7,,39.8,338,-73,11,1031.84,39.3,0
"2021-02-27 00:42:39+00",7.1,8.1,,39.8,299,-87,8,1031.84,39.3,0
"2021-02-27 00:47:39+00",8.3,9.3,,39.8,359,-117,5,1031.72,39.3,0
"2021-02-27 00:52:39+00",8.7,9.7,,39.9,370,-101,2,1031.71,39.4,0
"2021-02-27 00:57:39+00",9.2,11.2,,40,381,-140,5,1031.53,39.5,0
"2021-02-27 01:02:39+00",8.7,10.7,,40,343,-182,8,1031.53,39.6,0
"2021-02-27 01:07:39+00",8.8,9.8,,40,325,-218,-9,1031.67,39.6,0
"2021-02-27 01:12:39+00",8.5,9.5,,40,323,-203,0,1031.61,39.7,0
"2021-02-27 01:17:39+00",8.4,9.4,,40,311,-201,0,1031.54,39.6,0
"2021-02-27 01:22:39+00",7.4,8.4,,40,245,-217,-8,1031.55,39.6,0
"2021-02-27 01:27:39+00",7.5,8.5,,40,234,-224,7,1031.53,39.6,0
"2021-02-27 01:32:39+00",7.4,8.4,,40,223,-234,-3,1031.68,39.7,0
"2021-02-27 01:37:39+00",6.6,7.6,,40.1,174,-218,7,1031.62,39.7,0
"2021-02-27 01:42:39+00",7.2,8.2,,40.1,200,-241,3,1031.5,39.8,0
"2021-02-27 01:47:39+00",7.5,8.5,,40.1,252,-197,8,1031.42,39.8,0
"2021-02-27 01:52:39+00",6.7,7.7,,40.1,220,-191,-2,1031.49,39.8,0
"2021-02-27 01:57:39+00",7.6,8.6,,40.2,269,-212,-5,1031.46,39.8,0
"2021-02-27 02:02:39+00",7.2,9.2,,40.2,250,-187,3,1031.44,39.8,0
"2021-02-27 02:07:39+00",7.8,9.8,,40.2,250,-223,4,1031.3,39.8,0
"2021-02-27 02:12:39+00",8.1,9.1,,40.3,243,-252,-2,1031.43,39.9,0
"2021-02-27 02:17:39+00",7.3,9.3,,40.3,211,-240,-9,1031.51,39.9,0
"2021-02-27 02:22:39+00",7.8,8.8,,40.4,241,-249,-5,1031.43,40,0
"2021-02-27 02:27:39+00",7.7,9.7,,40.4,231,-248,1,1031.48,40,0
"2021-02-27 02:32:39+00",7.7,8.7,,40.5,236,-247,0,1031.38,40.1,0
"2021-02-27 02:37:39+00",9.1,10.1,,40.6,297,-255,2,1031.4,40.1,0
"2021-02-27 02:42:39+00",8.7,9.7,,40.6,293,-233,4,1031.28,40.2,0
"2021-02-27 02:47:39+00",9.7,10.7,,40.6,320,-262,8,1031.34,40.2,0
"2021-02-27 02:52:39+00",8.8,9.8,,40.7,316,-227,4,1031.34,40.2,0
"2021-02-27 02:57:39+00",8.6,9.6,,40.7,310,-220,7,1031.32,40.3,0
"2021-02-27 03:02:39+00",9.6,11.6,,40.8,367,-229,-1,1031.08,40.3,0
"2021-02-27 03:07:39+00",8.4,9.4,,40.8,342,-163,14,1030.99,40.3,0
"2021-02-27 03:12:39+00",8.7,10.7,,40.8,346,-176,9,1030.82,40.4,0
"2021-02-27 03:17:39+00",9.8,11.8,,40.8,367,-230,9,1030.84,40.4,0
"2021-02-27 03:22:39+00",10.0,12.0,,41,387,-234,4,1030.75,40.5,0
"2021-02-27 03:27:39+00",9.0,10.0,,41,349,-197,7,1030.7,40.6,0
"2021-02-27 03:32:39+00",9.5,10.5,,41,364,-222,-3,1030.67,40.6,0
"2021-02-27 03:37:39+00",8.7,10.7,,41,328,-201,0,1030.63,40.6,0
"2021-02-27 03:42:39+00",8.9,9.9,,41,339,-205,0,1030.63,40.6,0
"2021-02-27 03:47:39+00",10.5,12.5,,41,397,-252,-5,1030.48,40.6,0
"2021-02-27 03:52:39+00",10.0,11.0,,41.1,364,-271,13,1030.41,40.7,0
"2021-02-27 03:57:39+00",9.8,10.8,,41.2,370,-250,1,1030.39,40.7,0
"2021-02-27 04:02:39+00",9.8,10.8,,41.2,347,-244,3,1030.27,40.8,0
"2021-02-27 04:07:39+00",8.5,9.5,,41.2,297,-234,4,1030.18,40.8,0
"2021-02-27 04:12:39+00",8.5,11.5,,41.1,278,-253,2,1030.21,40.8,0
"2021-02-27 04:17:39+00",8.5,10.5,,41.2,268,-256,5,1030.09,40.8,0
"2021-02-27 04:22:39+00",8.9,9.9,,41.2,271,-290,4,1030.15,40.9,0
"2021-02-27 04:27:39+00",9.4,10.4,,41.3,198,-356,5,1030.16,41,0
"2021-02-27 04:32:39+00",8.6,12.6,,41.2,68,-369,-19,1030.37,40.9,0
"2021-02-27 04:37:39+00",8.2,9.2,,41.2,78,-341,-3,1030.24,40.8,0
"2021-02-27 04:42:39+00",8.3,10.3,,41.2,-54,-348,-8,1030.21,40.7,0
"2021-02-27 04:47:39+00",9.1,12.1,,41.3,-44,-371,-13,1030.18,40.7,0
"2021-02-27 04:52:39+00",9.6,11.6,,41.3,10,-409,-12,1030.08,40.7,0
"2021-02-27 04:57:39+00",7.6,9.6,,41.1,72,-327,2,1029.99,40.6,0
"2021-02-27 05:02:39+00",7.7,8.7,,41.1,21,-323,6,1029.91,40.5,0
"2021-02-27 05:07:39+00",11.4,13.4,,41.1,129,-471,-14,1029.93,40.5,0
"2021-02-27 05:12:39+00",9.2,11.2,,41,60,-398,-11,1029.95,40.3,0
"2021-02-27 05:17:39+00",9.9,12.9,,40.9,59,-437,-9,1029.82,40.3,0
"2021-02-27 05:22:39+00",9.2,11.2,,40.9,102,-385,-2,1029.83,40.2,0
"2021-02-27 05:27:39+00",12.7,14.7,,41,169,-523,-17,1029.81,40.1,0
"2021-02-27 05:32:39+00",8.9,10.9,,40.9,146,-357,0,1029.87,40.1,0
"2021-02-27 05:37:39+00",9.5,11.5,,40.8,133,-383,-3,1029.8,40,0
"2021-02-27 05:42:39+00",9.8,11.8,,40.7,178,-377,-1,1029.77,40,0
"2021-02-27 05:47:39+00",9.9,10.9,,40.8,138,-422,-14,1029.64,40,0
"2021-02-27 05:52:39+00",10.3,11.3,,40.7,121,-426,-18,1029.66,40,0
"2021-02-27 05:57:39+00",11.0,13.0,,40.5,186,-430,-13,1029.58,39.8,0
"2021-02-27 06:02:39+00",10.1,12.1,,40.4,226,-376,-7,1029.59,39.8,0
"2021-02-27 06:07:39+00",7.1,8.1,,40.3,125,-280,-4,1029.67,39.7,0
"2021-02-27 06:12:39+00",6.0,7.0,,40.3,90,-238,-1,1029.55,39.6,0
"2021-02-27 06:17:39+00",7.4,8.4,,40.3,158,-279,-10,1029.54,39.7,0
"2021-02-27 06:22:39+00",6.6,7.6,,40.3,210,-193,-5,1029.46,39.7,0
"2021-02-27 06:27:39+00",6.7,8.7,,40.2,266,-131,18,1029.28,39.6,0
"2021-02-27 06:32:39+00",8.4,10.4,,40.2,295,-232,9,1029.28,39.6,0
"2021-02-27 06:37:39+00",7.8,8.8,,40.3,285,-186,2,1029.16,39.6,0
"2021-02-27 06:42:39+00",7.2,8.2,,40.3,275,-172,5,1029.24,39.6,0
"2021-02-27 06:47:39+00",8.7,9.7,,40.3,352,-180,4,1029.13,39.6,0
"2021-02-27 06:52:39+00",9.1,10.1,,40.3,387,-146,7,1028.88,39.6,0
"2021-02-27 06:57:39+00",8.5,9.5,,40.2,372,-80,6,1028.62,39.6,0
"2021-02-27 07:02:39+00",8.6,9.6,,40.1,374,-45,18,1028.47,39.5,0
"2021-02-27 07:07:39+00",9.2,10.2,,40.1,416,-3,22,1028.34,39.4,0
"2021-02-27 07:12:39+00",10.9,11.9,,40,490,45,32,1028.09,39.4,0
"2021-02-27 07:17:39+00",10.4,12.4,,39.9,469,16,30,1027.89,39.4,0
"2021-02-27 07:22:39+00",12.2,13.2,,39.9,544,53,41,1027.5,39.3,0
"2021-02-27 07:27:39+00",13.0,14.0,,40,594,67,31,1027.22,39.3,0
"2021-02-27 07:32:39+00",12.7,14.7,,40,572,92,39,1027.03,39.3,0
"2021-02-27 07:37:39+00",13.4,15.4,,40,595,114,34,1026.84,39.4,0
"2021-02-27 07:42:39+00",12.8,14.8,,40.2,569,79,46,1026.79,39.4,0
"2021-02-27 07:47:39+00",13.1,15.1,,40.2,581,107,50,1026.69,39.4,0
"2021-02-27 07:52:39+00",14.0,16.0,,40.3,619,88,46,1026.46,39.4,0
"2021-02-27 07:57:39+00",13.1,15.1,,40.3,576,86,49,1026.51,39.5,0
"2021-02-27 08:02:39+00",14.3,16.3,,40.4,649,74,39,1026.36,39.6,0
"2021-02-27 08:07:39+00",14.6,16.6,,40.5,651,71,54,1026.07,39.7,0
"2021-02-27 08:12:39+00",15.2,17.2,,40.6,689,48,34,1026.06,39.7,0
"2021-02-27 08:17:39+00",14.5,15.5,,40.7,653,19,39,1025.86,39.8,0
"2021-02-27 08:22:39+00",15.7,17.7,,40.9,721,24,30,1025.7,39.9,0
"2021-02-27 08:27:39+00",14.9,17.9,,40.8,670,81,33,1025.61,40,0
"2021-02-27 08:32:39+00",14.0,16.0,,40.7,620,49,46,1025.5,40,0
"2021-02-27 08:37:39+00",14.0,16.0,,41,623,64,50,1025.52,40.1,0
"2021-02-27 08:42:39+00",14.9,16.9,,41,677,64,50,1025.4,40.2,0
"2021-02-27 08:47:39+00",13.1,17.1,,41,582,63,64,1025.48,40.2,0
"2021-02-27 08:52:39+00",12.5,14.5,,41.1,565,62,47,1025.4,40.3,0
"2021-02-27 08:57:39+00",14.0,17.0,,41.2,629,59,31,1025.35,40.4,0
"2021-02-27 09:02:39+00",13.1,15.1,,41.2,588,84,40,1025.31,40.4,0
"2021-02-27 09:07:39+00",13.7,15.7,,41.3,624,75,49,1025.31,40.5,0
"2021-02-27 09:12:39+00",12.7,14.7,,41.3,561,82,42,1025.29,40.5,0
"2021-02-27 09:17:39+00",12.8,13.8,,41.2,577,83,35,1025.12,40.5,0
"2021-02-27 09:22:39+00",12.4,14.4,,41.2,553,4,37,1025.07,40.5,0
"2021-02-27 09:27:39+00",14.3,16.3,,41.5,645,-1,24,1024.8,40.6,0
"2021-02-27 09:32:39+00",13.1,15.1,,41.6,595,18,36,1024.84,40.7,0
"2021-02-27 09:37:39+00",12.9,14.9,,41.7,570,48,40,1024.95,40.7,0
"2021-02-27 09:42:39+00",12.3,13.3,,41.7,560,56,43,1024.87,40.8,0
"2021-02-27 09:47:39+00",13.2,16.2,,41.8,584,42,42,1024.8,40.9,0
"2021-02-27 09:52:39+00",13.8,16.8,,41.9,609,61,55,1024.69,40.9,0
"2021-02-27 09:57:39+00",12.3,14.3,,41.8,550,67,44,1024.68,40.9,0
"2021-02-27 10:02:39+00",12.6,14.6,,41.8,565,47,25,1024.75,40.9,0
"2021-02-27 10:07:39+00",14.8,15.8,,41.8,658,25,40,1024.37,40.9,0
"2021-02-27 10:12:39+00",14.4,16.4,,41.7,649,19,37,1024.25,40.9,0
"2021-02-27 10:17:39+00",11.3,13.3,,41.6,506,31,46,1024.37,40.9,0
"2021-02-27 10:22:39+00",12.8,15.8,,41.5,572,55,35,1024.21,40.9,0
"2021-02-27 10:27:39+00",12.0,13.0,,41.5,541,49,28,1024.15,40.9,0
"2021-02-27 10:32:39+00",13.5,14.5,,41.5,611,-17,43,1023.89,40.8,0
"2021-02-27 10:37:39+00",13.5,15.5,,41.5,599,-22,32,1023.75,40.8,0
"2021-02-27 10:42:39+00",13.1,16.1,,41.5,579,-66,13,1023.9,40.9,0
"2021-02-27 10:47:39+00",14.6,15.6,,41.7,648,-84,16,1023.74,41,0
"2021-02-27 10:52:39+00",14.2,17.2,,41.7,621,-69,36,1023.63,41,0
"2021-02-27 10:57:39+00",13.8,15.8,,41.6,611,-66,37,1023.5,41.1,0
"2021-02-27 11:02:39+00",14.1,16.1,,41.7,631,-44,33,1023.41,41.1,0
"2021-02-27 11:07:39+00",13.0,15.0,,41.8,589,2,27,1023.4,41.1,0
"2021-02-27 11:12:39+00",12.2,14.2,,41.8,539,29,25,1023.32,41.2,0
"2021-02-27 11:17:39+00",11.4,14.4,,41.8,507,26,44,1023.13,41.2,0
"2021-02-27 11:22:39+00",13.4,15.4,,41.9,611,-37,20,1023.01,41.3,0
"2021-02-27 11:27:39+00",13.5,16.5,,42,601,-63,28,1022.77,41.4,0
"2021-02-27 11:32:39+00",14.2,16.2,,42,621,-87,30,1022.57,41.5,0
"2021-02-27 11:37:39+00",15.3,17.3,,42.1,672,-33,45,1022.39,41.6,0
"2021-02-27 11:42:39+00",13.8,15.8,,42.1,615,26,31,1022.16,41.6,0
"2021-02-27 11:47:39+00",11.6,13.6,,42,507,128,40,1022.11,41.6,0
"2021-02-27 11:52:39+00",12.0,14.0,,42.2,538,-35,19,1022.2,41.6,0
"2021-02-27 11:57:39+00",13.3,15.3,,42.7,585,-91,14,1022.04,42,0
"2021-02-27 12:02:39+00",15.6,18.6,,42.9,684,-117,38,1021.87,42.3,0
"2021-02-27 12:07:39+00",13.8,15.8,,42.9,621,40,35,1021.72,42.3,0
"2021-02-27 12:12:39+00",12.0,14.0,,42.7,534,-80,21,1021.78,42.2,0
"2021-02-27 12:17:39+00",11.7,13.7,,42.8,517,-82,20,1021.7,42.3,0
"2021-02-27 12:22:39+00",15.7,16.7,,43.3,688,-99,35,1021.19,42.4,0
"2021-02-27 12:27:39+00",14.6,16.6,,44.5,658,-32,45,1021.23,43.6,0
"2021-02-27 12:32:39+00",11.8,13.8,,43.8,518,81,19,1021.04,43.4,0
"2021-02-27 12:37:39+00",9.7,11.7,,43.8,421,-50,38,1020.97,43.3,0
"2021-02-27 12:42:39+00",18.5,21.5,,46,638,-502,31,1020.99,45,0
"2021-02-27 12:47:39+00",14.8,15.8,,46.2,573,-343,21,1021.03,45.3,0
"2021-02-27 12:52:39+00",11.8,14.8,,45.9,481,-186,3,1020.92,45,0
"2021-02-27 12:57:39+00",11.9,14.9,,45.4,478,-252,-1,1020.59,44.7,0
"2021-02-27 13:02:39+00",14.3,17.3,,45.3,569,-313,30,1020.51,44.6,0
"2021-02-27 13:07:39+00",15.5,17.5,,45.2,601,-360,21,1020.44,44.6,0
"2021-02-27 13:12:39+00",13.2,15.2,,45,490,-338,7,1020.4,44.4,0
"2021-02-27 13:17:39+00",12.4,14.4,,44.9,398,-384,9,1020.55,44.3,0
"2021-02-27 13:22:39+00",15.6,18.6,,45.2,418,-530,-4,1020.39,44.6,0
"2021-02-27 13:27:39+00",14.6,18.6,,45.5,386,-510,4,1020.31,44.9,0
"2021-02-27 13:32:39+00",18.2,21.2,,45.8,460,-638,3,1020.09,45.2,0
"2021-02-27 13:37:39+00",16.8,18.8,,45.6,461,-577,12,1019.91,45.1,0
"2021-02-27 13:42:39+00",18.2,20.2,,45.5,456,-659,-4,1019.53,44.9,0
"2021-02-27 13:47:39+00",20.5,23.5,,45.7,498,-743,1,1019.56,45,0
"2021-02-27 13:52:39+00",20.3,23.3,,45.5,431,-764,27,1019.58,44.9,0
"2021-02-27 13:57:39+00",17.0,20.0,,46.1,203,-685,31,1019.53,45.4,0
"2021-02-27 14:02:39+00",14.4,17.4,,45.7,214,-572,-3,1019.29,45.3,0
"2021-02-27 14:07:39+00",14.5,17.5,,45.4,248,-572,-6,1019.22,45,0
"2021-02-27 14:12:39+00",20.0,25.0,,46.1,255,-761,110,1018.73,45.5,0
"2021-02-27 14:17:39+00",20.5,24.5,,46.3,214,-761,125,1018.66,45.7,0
"2021-02-27 14:22:39+00",20.6,24.6,,46.5,139,-811,96,1018.45,45.9,0
"2021-02-27 14:27:39+00",25.2,29.2,,48,-320,-955,422,1018.17,47.2,0
"2021-02-27 14:32:39+00",23.4,27.4,,48.5,286,-946,10,1018.44,47.8,0
"2021-02-27 14:37:39+00",26.2,30.2,,48.4,595,-965,-20,1018.17,47.6,0
"2021-02-27 14:42:39+00",26.0,29.0,,48.2,746,-1004,-146,1018.07,47.4,0
"2021-02-27 14:47:39+00",20.9,22.9,,48.3,329,-825,-23,1018.52,47.5,0
"2021-02-27 14:52:39+00",14.4,17.4,,47.9,12,-591,-2,1018.5,47.5,0
"2021-02-27 14:57:39+00",24.3,32.3,,50.6,297,-1072,-137,1017.82,49.6,0
"2021-02-27 15:02:39+00",35.6,45.6,,52.8,1543,1127,1761,1017.29,51.5,0
"2021-02-27 15:07:39+00",22.0,30.0,,52.1,7,-942,-13,1017.82,51.1,0
"2021-02-27 15:12:39+00",17.6,23.6,,51.4,-18,-765,21,1017.86,50.7,0
"2021-02-27 15:17:39+00",17.5,23.5,,50.7,-108,-757,27,1017.81,50.3,0
"2021-02-27 15:22:39+00",16.3,19.3,,49.7,-253,-669,19,1017.8,49.4,0
"2021-02-27 15:27:39+00",14.8,16.8,,49.2,-172,-621,15,1017.74,48.9,0
"2021-02-27 15:32:39+00",13.6,19.6,,49,93,-557,7,1017.43,48.8,0
"2021-02-27 15:37:39+00",12.3,16.3,,48.4,150,-514,0,1017.33,48.3,0
"2021-02-27 15:42:39+00",14.6,17.6,,47.7,171,-604,-7,1017.18,47.7,0
"2021-02-27 15:47:39+00",15.6,18.6,,47.3,198,-642,4,1016.99,47.1,0
"2021-02-27 15:52:39+00",16.2,22.2,,47.6,142,-690,0,1016.91,47.3,0
"2021-02-27 15:57:39+00",20.1,25.1,,48.9,7,-833,31,1016.63,48.3,0
"2021-02-27 16:02:39+00",18.8,24.8,,49.2,-87,-768,47,1016.41,48.9,0
"2021-02-27 16:07:39+00",16.4,22.4,,48.8,-134,-664,3,1017.05,48.7,0
"2021-02-27 16:12:39+00",14.5,19.5,,48.6,-195,-588,8,1017.09,48.3,0
"2021-02-27 16:17:39+00",13.2,19.2,,48.4,-243,-532,-1,1017.04,48.1,0
"2021-02-27 16:22:39+00",14.7,19.7,,48.8,-79,-628,5,1016.79,48.4,0
"2021-02-27 16:27:39+00",14.1,18.1,,49,-156,-576,16,1016.71,48.6,0
"2021-02-27 16:32:39+00",14.4,17.4,,49.1,-225,-573,17,1016.67,48.9,0
"2021-02-27 16:37:39+00",17.6,20.6,,49.3,-220,-738,-9,1016.39,49,0
"2021-02-27 16:42:39+00",16.1,19.1,,49.4,-222,-659,1,1016.32,49.1,0
"2021-02-27 16:47:39+00",13.9,15.9,,49.4,-316,-530,11,1016.34,49,0
"2021-02-27 16:52:39+00",13.3,15.3,,49.3,-304,-503,22,1016.14,49,0
"2021-02-27 16:57:39+00",13.6,15.6,,49.1,-417,-435,9,1016.31,48.8,0
"2021-02-27 17:02:39+00",13.8,17.8,,48.8,-414,-456,22,1016.28,48.6,0
"2021-02-27 17:07:39+00",14.3,17.3,,48.7,-438,-418,-12,1016.21,48.5,0
"2021-02-27 17:12:39+00",16.2,19.2,,48.9,-485,-522,13,1015.96,48.6,0
"2021-02-27 17:17:39+00",18.5,22.5,,48.4,-673,-508,20,1016.31,48.4,0
"2021-02-27 17:22:39+00",17.2,19.2,,48.2,-586,-464,15,1016.23,48.2,0
"2021-02-27 17:27:39+00",16.4,19.4,,48,-638,-420,26,1016.38,48.1,0
"2021-02-27 17:32:39+00",18.2,21.2,,47.8,-623,-498,12,1016.49,47.8,0
"2021-02-27 17:37:39+00",17.6,20.6,,47.8,-572,-498,14,1016.29,47.7,0
"2021-02-27 17:42:39+00",14.6,17.6,,47.8,-463,-436,19,1016.11,47.6,0
"2021-02-27 17:47:39+00",15.3,18.3,,47.8,-468,-462,6,1016.06,47.6,0
"2021-02-27 17:52:39+00",16.7,18.7,,47.9,-503,-509,3,1016.01,47.7,0
"2021-02-27 17:57:39+00",13.3,15.3,,48,-423,-400,21,1015.99,47.7,0
"2021-02-27 18:02:39+00",13.1,15.1,,48.4,-378,-436,13,1016.02,47.9,0
"2021-02-27 18:07:39+00",11.9,13.9,,48.3,-372,-353,-4,1016.01,48.2,0
"2021-02-27 18:12:39+00",11.8,13.8,,49,-464,-272,10,1015.93,48.6,0
"2021-02-27 18:17:39+00",14.9,16.9,,51.1,-663,-21,29,1015.79,49.8,0
"2021-02-27 18:22:39+00",16.8,19.8,,52,-748,-76,11,1015.6,50.9,0
"2021-02-27 18:27:39+00",15.6,18.6,,52.5,-701,-48,20,1015.49,51.3,0
"2021-02-27 18:32:39+00",16.3,18.3,,53.4,-726,-39,14,1015.35,52,0
"2021-02-27 18:37:39+00",13.7,14.7,,53.2,-611,31,24,1015.18,52.2,0
"2021-02-27 18:42:39+00",18.7,21.7,,53.1,-830,25,20,1015.25,52.2,0
"2021-02-27 18:47:39+00",15.2,17.2,,54,-664,-87,34,1015.08,53.3,0
"2021-02-27 18:52:39+00",17.1,19.1,,54.2,-734,-128,11,1015.11,53.6,0
"2021-02-27 18:57:39+00",13.8,15.8,,53.9,-592,-80,52,1015.2,54,0
"2021-02-27 19:02:39+00",16.1,18.1,,53.7,-685,-151,4,1015.24,54.5,0
"2021-02-27 19:07:39+00",14.4,17.4,,53.7,-617,-112,39,1015.22,54.9,0
"2021-02-27 19:12:39+00",17.0,19.0,,54,-717,-218,27,1015.29,55.5,0
"2021-02-27 19:17:39+00",15.0,16.0,,54.4,-629,-290,7,1015.2,56.3,0
"2021-02-27 19:22:39+00",15.1,17.1,,54.5,-637,-230,53,1015.17,57,0
"2021-02-27 19:27:39+00",17.7,18.7,,54.5,-746,-181,26,1015.16,57.4,0
"2021-02-27 19:32:39+00",17.6,20.6,,54.7,-761,-95,26,1015.15,57.4,0
"2021-02-27 19:37:39+00",16.2,18.2,,55.1,-710,-124,18,1015.29,57.3,0
"2021-02-27 19:42:39+00",15.9,17.9,,55.1,-717,-28,14,1015.27,57.3,0
"2021-02-27 19:47:39+00",15.0,18.0,,54.5,-657,-32,66,1015.38,56.9,0
"2021-02-27 19:52:39+00",17.7,19.7,,54,-790,135,42,1015.57,56.3,0
"2021-02-27 19:57:39+00",16.4,18.4,,53.9,-727,156,32,1015.69,56,0
"2021-02-27 20:02:39+00",15.3,18.3,,53.1,-666,222,30,1015.75,55.6,0
"2021-02-27 20:07:39+00",15.2,17.2,,52.7,-659,247,20,1015.96,55.3,0
"2021-02-27 20:12:39+00",16.6,18.6,,52,-729,221,23,1015.97,54.7,0
"2021-02-27 20:17:39+00",18.9,20.9,,52.3,-843,200,26,1015.98,54.2,0
"2021-02-27 20:22:39+00",17.9,19.9,,52.6,-804,182,43,1016.02,54,0
"2021-02-27 20:27:39+00",17.5,19.5,,52.3,-784,119,26,1016.1,54,0
"2021-02-27 20:32:39+00",16.8,17.8,,52.3,-760,108,30,1016.11,54,0
"2021-02-27 20:37:39+00",15.1,18.1,,52.2,-690,48,28,1016.25,53.8,0
"2021-02-27 20:42:39+00",14.2,16.2,,51.9,-619,41,33,1016.27,53.5,0
"2021-02-27 20:47:39+00",15.2,17.2,,52,-689,108,28,1016.36,53.2,0
"2021-02-27 20:52:39+00",16.1,18.1,,52,-713,143,47,1016.51,53.1,0
"2021-02-27 20:57:39+00",14.3,16.3,,51.5,-638,89,33,1016.44,52.8,0
"2021-02-27 21:02:39+00",14.1,16.1,,51.3,-640,22,17,1016.59,52.4,0
"2021-02-27 21:07:39+00",14.5,16.5,,51.5,-668,-39,27,1016.62,52.2,0
"2021-02-27 21:12:39+00",14.8,16.8,,51.7,-665,-8,32,1016.79,52.1,0
"2021-02-27 21:17:39+00",13.8,15.8,,51.6,-610,2,24,1016.95,52.2,0
"2021-02-27 21:22:39+00",13.3,15.3,,51.5,-597,-9,23,1016.86,52.3,0
"2021-02-27 21:27:39+00",15.3,18.3,,51.4,-676,-26,19,1017.05,52.1,0
"2021-02-27 21:32:39+00",13.2,15.2,,51.7,-579,-70,15,1017.06,52.1,0
"2021-02-27 21:37:39+00",14.1,17.1,,51.5,-622,-37,17,1017.21,52,0
"2021-02-27 21:42:39+00",13.7,16.7,,51.1,-616,20,35,1017.31,51.7,0
"2021-02-27 21:47:39+00",12.6,14.6,,50.8,-566,24,28,1017.28,51.3,0
"2021-02-27 21:52:39+00",14.2,15.2,,50.9,-645,-27,16,1017.41,51,0
"2021-02-27 21:57:39+00",13.7,16.7,,51,-604,-45,30,1017.49,51.1,0
"2021-02-27 22:02:39+00",14.2,18.2,,51.1,-635,-5,30,1017.49,51.2,0
"2021-02-27 22:07:39+00",13.0,15.0,,50.9,-578,-5,23,1017.6,51.3,0
"2021-02-27 22:12:39+00",12.3,14.3,,50.5,-553,47,23,1017.66,51.3,0
"2021-02-27 22:17:39+00",11.1,13.1,,50.6,-506,-25,14,1017.58,51.1,0
"2021-02-27 22:22:39+00",9.7,10.7,,50.2,-422,-32,3,1017.65,50.7,0
"2021-02-27 22:27:39+00",13.2,17.2,,50.3,-576,-74,7,1017.95,50.1,0
"2021-02-27 22:32:39+00",12.0,13.0,,50.1,-545,-3,21,1018.09,49.7,0
"2021-02-27 22:37:39+00",13.1,16.1,,49.9,-596,14,12,1018.29,49.3,0
"2021-02-27 22:42:39+00",12.5,13.5,,49.7,-556,-28,10,1018.55,48.8,0
"2021-02-27 22:47:39+00",12.2,14.2,,49.4,-568,-3,12,1018.59,48.4,0
"2021-02-27 22:52:39+00",13.0,13.0,,49.3,-585,-1,4,1018.9,48,0
"2021-02-27 22:57:39+00",12.8,13.8,,49.1,-571,-18,15,1019.01,47.7,0
"2021-02-27 23:02:39+00",11.5,13.5,,48.7,-512,-14,14,1019.17,47.5,0
"2021-02-27 23:07:39+00",12.9,13.9,,48.5,-568,102,23,1019.33,47.2,0
"2021-02-27 23:12:39+00",10.9,11.9,,47.8,-482,123,13,1019.55,47,0
"2021-02-27 23:17:39+00",14.1,16.1,,47.9,-599,212,13,1019.6,46.6,0
"2021-02-27 23:22:39+00",15.3,17.3,,48.4,-649,222,27,1019.62,46.6,0
"2021-02-27 23:27:39+00",15.6,17.6,,48.6,-689,234,16,1019.81,46.9,0
"2021-02-27 23:32:39+00",15.2,17.2,,48.4,-660,245,24,1019.86,46.9,0
"2021-02-27 23:37:39+00",13.9,15.9,,48.1,-588,268,24,1020.01,46.8,0
"2021-02-27 23:42:39+00",13.9,15.9,,47.9,-597,235,13,1020.09,46.7,0
"2021-02-27 23:47:39+00",13.0,14.0,,47.4,-546,223,20,1020.13,46.5,0
"2021-02-27 23:52:39+00",12.4,14.4,,47.2,-511,221,31,1020.28,46.3,0
